EW1474 Weather Reports


time (UTC)temp
C
wind
direction
speed
KPH
gust
KPH
rain 1hr
cm
rain 24hr
cm
rain mn
cm
humidity
%
barometer
mb
20260504231636 13 310 0.0 1.6 0.00 0.00 0.00 68 1007.2
20260504231132 13 310 0.0 0.0 0.00 0.00 0.00 67 1007.1
20260504230629 13 311 0.0 0.0 0.00 0.00 0.00 67 1006.7
20260504230128 14 311 0.0 0.0 0.00 0.00 0.00 62 1007.0
20260504225626 14 311 0.0 1.6 0.00 0.00 0.00 61 1006.8
20260504225121 15 311 1.6 1.6 0.00 0.00 0.00 60 1006.7
20260504224618 15 346 3.2 4.8 0.00 0.00 0.00 59 1006.6
20260504224115 15 279 0.0 1.6 0.00 0.00 0.00 60 1006.5
20260504223612 15 272 0.0 1.6 0.00 0.00 0.00 59 1006.4
20260504223108 15 255 3.2 3.2 0.00 0.00 0.00 58 1006.7
20260504222605 15 288 1.6 3.2 0.00 0.00 0.00 59 1006.4
20260504222102 15 295 3.2 3.2 0.00 0.00 0.00 59 1006.1
20260504221559 15 235 6.4 8.0 0.00 0.00 0.00 59 1006.6
20260504221056 15 305 0.0 1.6 0.00 0.00 0.00 60 1006.6
20260504220552 15 227 3.2 3.2 0.00 0.00 0.00 60 1006.6
20260504220050 15 195 3.2 8.0 0.00 0.00 0.00 60 1006.6
20260504215546 15 279 1.6 3.2 0.00 0.00 0.00 59 1006.3
20260504215044 15 311 1.6 3.2 0.00 0.00 0.00 59 1006.4
20260504214539 15 201 1.6 3.2 0.00 0.00 0.00 60 1006.5
20260504214036 15 248 1.6 3.2 0.00 0.00 0.00 60 1006.4
20260504213532 15 101 0.0 3.2 0.00 0.00 0.00 60 1006.4
20260504213030 15 143 0.0 1.6 0.00 0.00 0.00 60 1006.2
20260504212526 15 344 0.0 3.2 0.00 0.00 0.00 59 1006.3
20260504212023 15 214 4.8 4.8 0.00 0.00 0.00 58 1006.1
20260504211520 15 274 1.6 4.8 0.00 0.00 0.00 57 1005.9
20260504211017 15 231 6.4 9.7 0.00 0.00 0.00 56 1006.0
20260504210514 15 278 4.8 11.3 0.00 0.00 0.00 57 1006.0
20260504210011 16 78 0.0 3.2 0.00 0.00 0.00 58 1006.0
20260504205509 16 298 3.2 8.0 0.00 0.00 0.00 56 1005.8
20260504205006 16 18 6.4 9.7 0.00 0.00 0.00 55 1006.1
20260504204504 16 284 6.4 12.9 0.00 0.00 0.00 56 1005.9
20260504204003 16 272 1.6 3.2 0.00 0.00 0.00 57 1005.8
20260504203500 15 277 4.8 11.3 0.00 0.00 0.00 58 1005.6
20260504202956 15 282 9.7 12.9 0.00 0.00 0.00 58 1005.9
20260504202453 15 230 3.2 8.0 0.00 0.00 0.00 60 1005.8
20260504201950 15 288 8.0 11.3 0.00 0.00 0.00 59 1005.8
20260504201447 15 215 3.2 8.0 0.00 0.00 0.00 61 1005.7
20260504200945 15 29 0.0 3.2 0.00 0.00 0.00 63 1005.6
20260504200441 15 61 1.6 3.2 0.00 0.00 0.00 65 1005.8
20260504195938 15 17 3.2 8.0 0.00 0.00 0.00 64 1005.6
20260504195434 15 285 1.6 1.6 0.00 0.00 0.00 65 1005.6
20260504194930 14 268 8.0 11.3 0.00 0.00 0.00 64 1005.7
20260504194426 15 313 6.4 8.0 0.00 0.00 0.00 65 1005.7
20260504193923 14 7 1.6 4.8 0.00 0.00 0.00 67 1006.0
20260504193420 14 180 1.6 3.2 0.00 0.00 0.00 66 1006.1
20260504192919 13 5 1.6 3.2 0.00 0.00 0.00 68 1005.9
20260504192415 13 260 4.8 4.8 0.00 0.00 0.00 68 1005.7
20260504191914 13 54 1.6 1.6 0.00 0.00 0.00 69 1006.1
20260504191412 13 71 0.0 1.6 0.00 0.00 0.00 71 1006.0
20260504190907 12 122 1.6 3.2 0.00 0.00 0.00 70 1006.1
20260504190403 12 60 1.6 3.2 0.00 0.00 0.00 72 1006.1
20260504185900 12 197 4.8 4.8 0.00 0.00 0.00 68 1006.4
20260504185357 13 157 4.8 9.7 0.00 0.00 0.00 66 1006.4
20260504184853 13 312 1.6 3.2 0.00 0.00 0.00 69 1006.2
20260504184349 13 279 3.2 4.8 0.00 0.00 0.00 67 1006.4
20260504183845 13 253 4.8 4.8 0.00 0.00 0.00 67 1006.2
20260504183343 13 206 1.6 8.0 0.00 0.00 0.00 67 1006.1
20260504182840 13 268 1.6 3.2 0.00 0.00 0.00 67 1006.4
20260504182337 12 250 3.2 3.2 0.00 0.00 0.00 68 1006.4
20260504181834 12 250 4.8 4.8 0.00 0.00 0.00 68 1006.5
20260504181331 12 293 0.0 3.2 0.00 0.00 0.00 68 1006.4
20260504180830 12 38 1.6 3.2 0.00 0.00 0.00 70 1006.6
20260504180328 12 34 0.0 4.8 0.00 0.00 0.00 69 1006.6
20260504175826 12 185 0.0 1.6 0.00 0.00 0.00 69 1006.6
20260504175322 12 244 3.2 4.8 0.00 0.00 0.00 65 1006.6
20260504174821 12 157 1.6 1.6 0.00 0.00 0.00 66 1006.5
20260504174318 12 213 1.6 1.6 0.00 0.00 0.00 64 1006.4
20260504173815 12 245 1.6 3.2 0.00 0.00 0.00 66 1006.7
20260504173311 12 32 0.0 1.6 0.00 0.00 0.00 67 1006.5
20260504172809 11 356 0.0 1.6 0.00 0.00 0.00 66 1006.5
20260504172305 11 341 0.0 1.6 0.00 0.00 0.00 69 1006.3
20260504171801 11 7 0.0 1.6 0.00 0.00 0.00 71 1006.1
20260504171258 11 26 0.0 0.0 0.00 0.00 0.00 75 1006.1
20260504170755 11 105 0.0 1.6 0.00 0.00 0.00 73 1006.0
20260504170252 11 133 0.0 1.6 0.00 0.00 0.00 74 1005.9
20260504160211 14 245 3.2 4.8 0.00 0.00 0.00 50 1005.5
20260504151139 13 32 1.6 8.0 0.00 0.00 0.00 46 1006.3
20260504150636 13 258 1.6 3.2 0.00 0.00 0.00 46 1006.6
20260504150133 13 261 1.6 9.7 0.00 0.00 0.00 45 1006.4
20260504141101 12 119 1.6 4.8 0.00 0.00 0.00 49 1007.3
20260504140558 12 202 3.2 8.0 0.00 0.00 0.00 47 1007.4
20260504130522 10 272 3.2 8.0 0.00 0.00 0.00 52 1008.1
20260504110410 6 266 3.2 4.8 0.00 0.00 0.00 63 1008.2
20260504100326 5 227 0.0 4.8 0.00 0.00 0.00 68 1007.8
20260504081720 5 236 9.7 12.9 0.00 0.00 0.00 65 1007.0
20260504081216 5 272 4.8 8.0 0.00 0.00 0.00 65 1007.0
20260504080712 5 173 4.8 8.0 0.00 0.00 0.00 65 1007.1
20260504080209 5 312 1.6 8.0 0.00 0.00 0.00 65 1006.9
20260504070137 3 287 4.8 4.8 0.00 0.00 0.00 70 1006.7
20260504050525 4 301 4.8 4.8 0.00 0.00 0.00 71 1006.2
20260504050022 4 255 3.2 9.7 0.00 0.00 0.00 70 1006.0
20260504045519 3 245 3.2 3.2 0.00 0.00 0.00 71 1006.0
20260504045015 3 307 1.6 3.2 0.00 0.00 0.00 71 1006.1
20260504044512 4 289 3.2 8.0 0.00 0.00 0.00 70 1005.9
20260504044009 4 284 1.6 4.8 0.00 0.00 0.00 71 1005.9
20260504043506 4 241 3.2 8.0 0.00 0.00 0.00 70 1005.8
20260504043004 4 296 3.2 8.0 0.00 0.00 0.00 70 1005.8
20260504042500 4 286 3.2 3.2 0.00 0.00 0.00 69 1005.6
20260504041957 4 335 3.2 8.0 0.00 0.00 0.00 69 1005.7
20260504041453 4 239 1.6 4.8 0.00 0.00 0.00 71 1005.6
20260504040949 4 313 3.2 8.0 0.00 0.00 0.00 69 1005.7
20260504040447 4 259 3.2 3.2 0.00 0.00 0.00 70 1005.8
20260504035943 4 318 1.6 8.0 0.00 2.21 2.21 70 1005.4
20260504035441 4 299 1.6 3.2 0.00 2.21 2.21 71 1005.5
20260504034937 5 239 1.6 3.2 0.00 2.21 2.21 70 1005.4
20260504034435 5 278 3.2 3.2 0.00 2.21 2.21 71 1005.6
20260504033931 5 259 3.2 4.8 0.00 2.21 2.21 70 1005.6
20260504033429 5 283 1.6 4.8 0.00 2.21 2.21 70 1005.6
20260504032926 5 270 3.2 8.0 0.00 2.21 2.21 68 1005.4
20260504032423 5 262 3.2 8.0 0.00 2.21 2.21 69 1005.4
20260504031920 5 305 1.6 3.2 0.00 2.21 2.21 70 1005.5
20260504031417 5 256 1.6 4.8 0.00 2.21 2.21 70 1005.5
20260504030913 5 293 1.6 3.2 0.00 2.21 2.21 70 1005.4
20260504030410 5 297 1.6 3.2 0.00 2.21 2.21 71 1005.1
20260504025906 5 266 6.4 11.3 0.00 2.21 2.21 70 1005.3
20260504025404 5 236 3.2 4.8 0.00 2.21 2.21 69 1005.1
20260504024900 5 236 3.2 4.8 0.00 2.21 2.21 70 1005.1
20260504024356 5 292 4.8 8.0 0.00 2.21 2.21 70 1005.2
20260504023854 5 241 3.2 3.2 0.00 2.21 2.21 70 1005.2
20260504023350 5 319 3.2 4.8 0.00 2.21 2.21 69 1004.9
20260504022846 5 325 0.0 4.8 0.00 2.21 2.21 69 1005.0
20260504022343 5 296 4.8 4.8 0.00 2.21 2.21 69 1005.1
20260504021839 5 312 3.2 4.8 0.00 2.21 2.21 70 1005.0
20260504021337 5 234 4.8 8.0 0.00 2.21 2.21 69 1004.7
20260504020834 5 326 3.2 9.7 0.00 2.21 2.21 70 1004.7
20260504020330 5 319 4.8 9.7 0.00 2.21 2.21 69 1004.8
20260504015826 5 11 3.2 4.8 0.00 2.21 2.21 70 1004.8
20260504015323 5 339 1.6 8.0 0.00 2.21 2.21 72 1004.5
20260504014819 5 333 0.0 8.0 0.00 2.21 2.21 73 1004.5
20260504014315 6 339 1.6 3.2 0.00 2.21 2.21 72 1004.7
20260504013813 6 275 3.2 4.8 0.00 2.21 2.21 72 1004.5
20260504013311 6 345 3.2 8.0 0.00 2.21 2.21 71 1004.5
20260504012807 6 277 1.6 8.0 0.00 2.21 2.21 72 1004.3
20260504012305 6 306 8.0 9.7 0.00 2.21 2.21 72 1004.5
20260504011802 6 22 3.2 8.0 0.00 2.21 2.21 77 1004.4
20260504011259 6 348 3.2 3.2 0.00 2.21 2.21 80 1004.2
20260504010754 6 328 1.6 3.2 0.00 2.21 2.21 82 1004.1
20260504010250 6 248 4.8 4.8 0.00 2.21 2.21 85 1004.3
20260504005747 6 30 1.6 1.6 0.00 2.21 2.21 94 1004.0
20260504005244 5 309 1.6 3.2 0.00 2.21 2.21 97 1004.0
20260504004742 5 330 0.0 1.6 0.00 2.21 2.21 98 1003.9
20260504004239 5 288 3.2 3.2 0.00 2.21 2.21 99 1003.8
20260504003735 5 343 0.0 1.6 0.00 2.21 2.21 99 1003.9
20260504003232 6 357 0.0 1.6 0.00 2.21 2.21 99 1003.5
20260504002729 6 324 1.6 3.2 0.00 2.21 2.21 99 1003.6
20260504002226 6 15 0.0 1.6 0.00 2.21 2.21 98 1003.6
20260504001724 6 22 1.6 1.6 0.00 2.21 2.21 98 1003.4
20260504001220 6 4 1.6 4.8 0.00 2.21 2.21 97 1003.3
20260504000717 6 40 0.0 3.2 0.00 2.21 2.21 97 1003.5
20260504000214 6 304 1.6 4.8 0.00 2.21 2.21 98 1003.4
20260503235712 6 354 1.6 1.6 0.00 2.21 2.21 98 1003.3
20260503235209 6 340 1.6 3.2 0.00 2.21 2.21 99 1003.3
20260503234707 6 354 1.6 3.2 0.00 2.21 2.21 99 1003.3
20260503234205 6 318 1.6 8.0 0.00 2.21 2.21 99 1003.2
20260503233701 6 27 3.2 4.8 0.00 2.21 2.21 99 1003.2
20260503233157 6 312 3.2 3.2 0.00 2.21 2.21 99 1003.1
20260503232654 6 32 3.2 4.8 0.00 2.21 2.21 99 1003.0
20260503232151 6 38 6.4 11.3 0.00 2.21 2.21 99 1003.0